Time,TemperatureF,DewpointF,PressureIn,WindDirection,WindDirectionDegrees,WindSpeedMPH,WindSpeedGustMPH,Humidity,HourlyPrecipIn,Conditions,Clouds,dailyrainin,SoftwareType,DateUTC
2013-11-26 00:02:00,32.0,25.7,30.13,SW,219,2.1,3.4,77,0.00,,,0.00,WUHU216HW,2013-11-26 06:02:00,
2013-11-26 00:07:00,32.0,25.7,30.13,SW,217,1.8,3.8,77,0.00,,,0.00,WUHU216HW,2013-11-26 06:07:00,
2013-11-26 00:12:00,32.0,25.7,30.12,SSW,203,2.3,3.8,77,0.00,,,0.00,WUHU216HW,2013-11-26 06:12:00,
2013-11-26 00:17:00,32.0,25.4,30.12,WSW,243,1.9,3.6,76,0.00,,,0.00,WUHU216HW,2013-11-26 06:17:00,
2013-11-26 00:22:00,32.0,25.7,30.12,SSW,203,2.5,3.6,77,0.00,,,0.00,WUHU216HW,2013-11-26 06:22:00,
2013-11-26 00:27:00,32.0,25.7,30.12,SW,225,3.6,4.0,77,0.00,,,0.00,WUHU216HW,2013-11-26 06:27:00,
2013-11-26 00:32:00,32.0,25.7,30.12,South,183,2.1,4.0,77,0.00,,,0.00,WUHU216HW,2013-11-26 06:32:00,
2013-11-26 00:37:00,32.0,25.7,30.12,SSW,203,2.9,4.7,77,0.00,,,0.00,WUHU216HW,2013-11-26 06:37:00,
2013-11-26 00:42:00,32.0,25.4,30.11,SSW,209,3.3,4.7,76,0.00,,,0.00,WUHU216HW,2013-11-26 06:42:00,
2013-11-26 00:47:00,32.0,25.4,30.11,South,180,4.0,6.0,76,0.00,,,0.00,WUHU216HW,2013-11-26 06:47:00,
2013-11-26 00:52:00,32.0,25.4,30.11,SSW,203,2.0,6.0,76,0.00,,,0.00,WUHU216HW,2013-11-26 06:52:00,
2013-11-26 00:57:00,32.0,25.4,30.11,SSW,206,1.8,4.3,76,0.00,,,0.00,WUHU216HW,2013-11-26 06:57:00,
2013-11-26 01:02:00,32.0,25.4,30.11,SW,225,3.4,5.4,76,0.00,,,0.00,WUHU216HW,2013-11-26 07:02:00,
2013-11-26 01:07:00,32.0,25.4,30.10,SW,219,3.0,5.4,76,0.00,,,0.00,WUHU216HW,2013-11-26 07:07:00,
2013-11-26 01:12:00,32.2,25.5,30.10,SW,224,3.1,4.7,76,0.00,,,0.00,WUHU216HW,2013-11-26 07:12:00,
2013-11-26 01:17:00,32.2,25.5,30.10,SSW,195,1.8,4.7,76,0.00,,,0.00,WUHU216HW,2013-11-26 07:17:00,
2013-11-26 01:18:00,32.2,25.5,30.10,SSW,203,3.6,4.7,76,0.00,,,0.00,WUHU216HW,2013-11-26 07:18:00,
2013-11-26 01:19:00,32.2,25.5,30.10,SSW,206,2.0,4.7,76,0.00,,,0.00,WUHU216HW,2013-11-26 07:19:00,
2013-11-26 01:21:00,32.2,25.5,30.10,SSW,203,4.0,4.7,76,0.00,,,0.00,WUHU216HW,2013-11-26 07:21:00,
2013-11-26 01:22:00,32.2,25.5,30.10,WSW,248,6.0,6.0,76,0.00,,,0.00,WUHU216HW,2013-11-26 07:22:00,
2013-11-26 01:23:00,32.2,25.5,30.10,SW,228,3.5,6.0,76,0.00,,,0.00,WUHU216HW,2013-11-26 07:23:00,
2013-11-26 01:24:00,32.2,25.5,30.11,SSW,207,3.1,6.0,76,0.00,,,0.00,WUHU216HW,2013-11-26 07:24:00,
2013-11-26 01:26:00,32.2,25.5,30.11,SSW,204,2.6,6.0,76,0.00,,,0.00,WUHU216HW,2013-11-26 07:26:00,
2013-11-26 01:27:00,32.2,25.5,30.11,WSW,248,3.6,6.0,76,0.00,,,0.00,WUHU216HW,2013-11-26 07:27:00,
2013-11-26 01:28:00,32.2,25.5,30.10,SSW,203,2.5,6.0,76,0.00,,,0.00,WUHU216HW,2013-11-26 07:28:00,
2013-11-26 01:29:00,32.2,25.5,30.11,SSW,198,2.0,6.0,76,0.00,,,0.00,WUHU216HW,2013-11-26 07:29:00,
2013-11-26 01:31:00,32.2,25.5,30.11,WSW,248,4.7,6.0,76,0.00,,,0.00,WUHU216HW,2013-11-26 07:31:00,
2013-11-26 01:32:00,32.2,25.5,30.10,SSW,199,2.2,6.0,76,0.00,,,0.00,WUHU216HW,2013-11-26 07:32:00,
2013-11-26 01:33:00,32.2,25.5,30.10,SW,225,2.2,4.7,76,0.00,,,0.00,WUHU216HW,2013-11-26 07:33:00,
2013-11-26 01:34:00,32.2,25.5,30.10,SSW,207,3.1,4.7,76,0.00,,,0.00,WUHU216HW,2013-11-26 07:34:00,
2013-11-26 01:36:00,32.2,25.5,30.10,WSW,238,2.6,4.7,76,0.00,,,0.00,WUHU216HW,2013-11-26 07:36:00,
2013-11-26 01:37:00,32.2,25.5,30.10,SW,222,2.4,4.7,76,0.00,,,0.00,WUHU216HW,2013-11-26 07:37:00,
2013-11-26 01:38:00,32.2,25.5,30.10,SW,224,2.8,4.7,76,0.00,,,0.00,WUHU216HW,2013-11-26 07:38:00,
2013-11-26 01:39:00,32.2,25.5,30.10,SSW,203,4.3,4.7,76,0.00,,,0.00,WUHU216HW,2013-11-26 07:39:00,
2013-11-26 01:41:00,32.2,25.5,30.10,SW,222,3.3,4.7,76,0.00,,,0.00,WUHU216HW,2013-11-26 07:41:00,
2013-11-26 01:42:00,32.2,25.5,30.10,SSW,213,2.8,4.7,76,0.00,,,0.00,WUHU216HW,2013-11-26 07:42:00,
2013-11-26 01:43:00,32.2,25.5,30.10,SSW,211,2.8,4.7,76,0.00,,,0.00,WUHU216HW,2013-11-26 07:43:00,
2013-11-26 01:44:00,32.2,25.5,30.10,SW,223,3.1,4.5,76,0.00,,,0.00,WUHU216HW,2013-11-26 07:44:00,
2013-11-26 01:46:00,32.2,25.5,30.10,SSW,203,3.1,4.5,76,0.00,,,0.00,WUHU216HW,2013-11-26 07:46:00,
2013-11-26 01:47:00,32.2,25.5,30.10,SW,225,6.5,6.5,76,0.00,,,0.00,WUHU216HW,2013-11-26 07:47:00,
2013-11-26 01:48:00,32.2,25.5,30.10,SW,229,3.9,6.5,76,0.00,,,0.00,WUHU216HW,2013-11-26 07:48:00,
2013-11-26 01:49:00,32.2,25.5,30.10,SW,225,4.3,6.5,76,0.00,,,0.00,WUHU216HW,2013-11-26 07:49:00,
2013-11-26 01:51:00,32.2,25.5,30.10,SSW,209,3.1,6.5,76,0.00,,,0.00,WUHU216HW,2013-11-26 07:51:00,
2013-11-26 01:52:00,32.2,25.5,30.10,South,180,4.3,6.5,76,0.00,,,0.00,WUHU216HW,2013-11-26 07:52:00,
2013-11-26 01:53:00,32.2,25.5,30.10,SSW,203,2.9,6.5,76,0.00,,,0.00,WUHU216HW,2013-11-26 07:53:00,
2013-11-26 01:54:00,32.2,25.5,30.10,South,180,3.1,6.5,76,0.00,,,0.00,WUHU216HW,2013-11-26 07:54:00,
2013-11-26 01:56:00,32.2,25.5,30.10,SSW,192,2.4,6.5,76,0.00,,,0.00,WUHU216HW,2013-11-26 07:56:00,
2013-11-26 01:57:00,32.2,25.5,30.10,SSW,204,1.7,6.5,76,0.00,,,0.00,WUHU216HW,2013-11-26 07:57:00,
2013-11-26 01:58:00,32.2,25.5,30.10,SSW,203,2.2,4.3,76,0.00,,,0.00,WUHU216HW,2013-11-26 07:58:00,
2013-11-26 01:59:00,32.2,25.5,30.10,SSW,203,6.0,6.0,76,0.00,,,0.00,WUHU216HW,2013-11-26 07:59:00,
2013-11-26 02:00:00,32.2,25.5,30.10,SW,219,4.3,6.0,76,0.00,,,0.00,WUHU216HW,2013-11-26 08:00:00,
2013-11-26 02:02:00,32.0,25.4,30.10,SW,218,2.9,6.0,76,0.00,,,0.00,WUHU216HW,2013-11-26 08:02:00,
2013-11-26 02:03:00,32.0,25.4,30.10,SW,225,6.9,6.9,76,0.00,,,0.00,WUHU216HW,2013-11-26 08:03:00,
2013-11-26 02:04:00,32.0,25.4,30.10,SW,220,3.8,6.9,76,0.00,,,0.00,WUHU216HW,2013-11-26 08:04:00,
2013-11-26 02:05:00,32.0,25.4,30.10,SW,227,2.1,6.9,76,0.00,,,0.00,WUHU216HW,2013-11-26 08:05:00,
2013-11-26 02:07:00,32.0,25.7,30.09,SSW,203,5.4,6.9,77,0.00,,,0.00,WUHU216HW,2013-11-26 08:07:00,
2013-11-26 02:08:00,32.0,25.7,30.10,SSW,196,2.8,6.9,77,0.00,,,0.00,WUHU216HW,2013-11-26 08:08:00,
2013-11-26 02:09:00,32.0,25.4,30.09,SSW,203,1.8,6.9,76,0.00,,,0.00,WUHU216HW,2013-11-26 08:09:00,
2013-11-26 02:10:00,32.0,25.7,30.09,SSW,213,2.3,6.9,77,0.00,,,0.00,WUHU216HW,2013-11-26 08:10:00,
2013-11-26 02:12:00,32.0,25.7,30.09,NW,315,3.6,6.9,77,0.00,,,0.00,WUHU216HW,2013-11-26 08:12:00,
2013-11-26 02:13:00,32.0,25.7,30.09,SW,219,3.0,6.9,77,0.00,,,0.00,WUHU216HW,2013-11-26 08:13:00,
2013-11-26 02:14:00,32.0,25.7,30.09,SSW,213,2.5,5.4,77,0.00,,,0.00,WUHU216HW,2013-11-26 08:14:00,
2013-11-26 02:15:00,32.0,25.7,30.09,WSW,248,2.5,5.4,77,0.00,,,0.00,WUHU216HW,2013-11-26 08:15:00,
2013-11-26 02:17:00,31.9,25.5,30.09,SSW,203,2.2,5.4,77,0.00,,,0.00,WUHU216HW,2013-11-26 08:17:00,
2013-11-26 02:18:00,31.9,25.5,30.09,South,180,3.6,3.8,77,0.00,,,0.00,WUHU216HW,2013-11-26 08:18:00,
2013-11-26 02:19:00,31.9,25.5,30.09,South,191,3.1,3.8,77,0.00,,,0.00,WUHU216HW,2013-11-26 08:19:00,
2013-11-26 02:20:00,31.9,25.5,30.09,SSW,211,2.8,3.8,77,0.00,,,0.00,WUHU216HW,2013-11-26 08:20:00,
2013-11-26 02:22:00,31.7,25.3,30.09,SW,214,2.4,3.6,77,0.00,,,0.00,WUHU216HW,2013-11-26 08:22:00,
2013-11-26 02:23:00,31.7,25.3,30.09,SW,220,2.1,3.6,77,0.00,,,0.00,WUHU216HW,2013-11-26 08:23:00,
2013-11-26 02:24:00,31.7,25.3,30.09,SSW,208,1.4,3.6,77,0.00,,,0.00,WUHU216HW,2013-11-26 08:24:00,
2013-11-26 02:25:00,31.7,25.3,30.09,WSW,248,2.9,3.6,77,0.00,,,0.00,WUHU216HW,2013-11-26 08:25:00,
2013-11-26 02:27:00,31.7,25.3,30.09,SW,222,2.6,3.6,77,0.00,,,0.00,WUHU216HW,2013-11-26 08:27:00,
2013-11-26 02:28:00,31.7,25.3,30.09,SW,220,2.2,3.6,77,0.00,,,0.00,WUHU216HW,2013-11-26 08:28:00,
2013-11-26 02:29:00,31.5,25.1,30.09,SW,218,1.5,3.6,77,0.00,,,0.00,WUHU216HW,2013-11-26 08:29:00,
2013-11-26 02:30:00,31.5,25.1,30.09,WSW,248,1.8,3.6,77,0.00,,,0.00,WUHU216HW,2013-11-26 08:30:00,
2013-11-26 02:32:00,31.5,25.1,30.09,SW,225,2.5,3.6,77,0.00,,,0.00,WUHU216HW,2013-11-26 08:32:00,
2013-11-26 02:33:00,31.5,25.1,30.09,SSW,213,1.8,3.6,77,0.00,,,0.00,WUHU216HW,2013-11-26 08:33:00,
2013-11-26 02:34:00,31.5,25.1,30.09,SW,223,1.9,3.6,77,0.00,,,0.00,WUHU216HW,2013-11-26 08:34:00,
2013-11-26 02:35:00,31.3,24.9,30.09,SSW,203,2.0,3.6,77,0.00,,,0.00,WUHU216HW,2013-11-26 08:35:00,
2013-11-26 02:37:00,31.3,24.9,30.09,SW,220,3.0,4.7,77,0.00,,,0.00,WUHU216HW,2013-11-26 08:37:00,
2013-11-26 02:38:00,31.3,24.9,30.10,SW,234,2.4,4.7,77,0.00,,,0.00,WUHU216HW,2013-11-26 08:38:00,
2013-11-26 02:39:00,31.3,24.9,30.09,SSW,203,2.0,4.7,77,0.00,,,0.00,WUHU216HW,2013-11-26 08:39:00,
2013-11-26 02:40:00,31.3,24.9,30.09,South,173,1.2,4.7,77,0.00,,,0.00,WUHU216HW,2013-11-26 08:40:00,
2013-11-26 02:50:00,31.1,25.1,30.08,SSW,203,3.1,4.5,78,0.00,,,0.00,WUHU216HW,2013-11-26 08:50:00,
2013-11-26 02:55:00,31.0,24.9,30.08,SSW,203,3.6,5.4,78,0.00,,,0.00,WUHU216HW,2013-11-26 08:55:00,
2013-11-26 03:00:00,31.0,24.9,30.08,SW,219,2.6,5.4,78,0.00,,,0.00,WUHU216HW,2013-11-26 09:00:00,
2013-11-26 03:05:00,30.8,24.8,30.08,South,180,3.8,5.8,78,0.00,,,0.00,WUHU216HW,2013-11-26 09:05:00,
2013-11-26 03:10:00,30.8,24.8,30.08,South,180,3.4,5.8,78,0.00,,,0.00,WUHU216HW,2013-11-26 09:10:00,
2013-11-26 03:16:00,30.8,24.8,30.08,SSW,203,3.4,3.8,78,0.00,,,0.00,WUHU216HW,2013-11-26 09:16:00,
2013-11-26 03:21:00,30.8,24.8,30.08,SSW,193,1.6,3.6,78,0.00,,,0.00,WUHU216HW,2013-11-26 09:21:00,
2013-11-26 03:25:00,30.8,24.8,30.09,SSW,203,3.4,3.6,78,0.00,,,0.00,WUHU216HW,2013-11-26 09:25:00,
2013-11-26 03:30:00,30.8,24.8,30.08,SSW,203,2.7,4.0,78,0.00,,,0.00,WUHU216HW,2013-11-26 09:30:00,
2013-11-26 03:35:00,30.8,24.8,30.07,SW,222,1.8,4.0,78,0.00,,,0.00,WUHU216HW,2013-11-26 09:35:00,
2013-11-26 03:40:00,30.8,25.0,30.08,South,180,1.8,3.4,79,0.00,,,0.00,WUHU216HW,2013-11-26 09:40:00,
2013-11-26 03:45:00,31.0,25.2,30.08,SSW,203,1.8,4.7,79,0.00,,,0.00,WUHU216HW,2013-11-26 09:45:00,
2013-11-26 03:50:00,31.0,25.2,30.08,SSW,203,2.2,4.7,79,0.00,,,0.00,WUHU216HW,2013-11-26 09:50:00,
2013-11-26 03:55:00,31.0,25.2,30.08,SW,226,2.1,4.3,79,0.00,,,0.00,WUHU216HW,2013-11-26 09:55:00,
2013-11-26 04:00:00,31.1,25.4,30.08,SW,225,4.0,4.0,79,0.00,,,0.00,WUHU216HW,2013-11-26 10:00:00,
2013-11-26 04:05:00,31.3,25.6,30.07,SW,225,3.4,5.6,79,0.00,,,0.00,WUHU216HW,2013-11-26 10:05:00,
2013-11-26 04:10:00,31.3,25.6,30.07,WSW,248,4.0,6.7,79,0.00,,,0.00,WUHU216HW,2013-11-26 10:10:00,
2013-11-26 04:15:00,31.3,25.3,30.07,West,270,4.5,6.7,78,0.00,,,0.00,WUHU216HW,2013-11-26 10:15:00,
2013-11-26 04:20:00,31.3,25.6,30.07,WSW,248,4.0,7.4,79,0.00,,,0.00,WUHU216HW,2013-11-26 10:20:00,
2013-11-26 04:25:00,31.3,25.6,30.08,SW,235,5.5,7.4,79,0.00,,,0.00,WUHU216HW,2013-11-26 10:25:00,
2013-11-26 04:30:00,31.3,25.6,30.08,SW,235,4.2,6.7,79,0.00,,,0.00,WUHU216HW,2013-11-26 10:30:00,
2013-11-26 04:35:00,31.1,25.4,30.07,WSW,248,4.3,6.3,79,0.00,,,0.00,WUHU216HW,2013-11-26 10:35:00,
2013-11-26 04:41:00,31.1,25.4,30.08,WSW,248,5.1,5.6,79,0.00,,,0.00,WUHU216HW,2013-11-26 10:41:00,
2013-11-26 04:45:00,31.1,25.4,30.07,SW,225,3.8,5.6,79,0.00,,,0.00,WUHU216HW,2013-11-26 10:45:00,
2013-11-26 04:50:00,31.1,25.4,30.07,WSW,238,3.9,5.4,79,0.00,,,0.00,WUHU216HW,2013-11-26 10:50:00,
2013-11-26 04:55:00,31.1,25.4,30.07,SW,225,2.5,5.4,79,0.00,,,0.00,WUHU216HW,2013-11-26 10:55:00,
2013-11-26 05:00:00,31.1,25.4,30.07,WSW,241,4.2,5.1,79,0.00,,,0.00,WUHU216HW,2013-11-26 11:00:00,
2013-11-26 05:05:00,31.1,25.4,30.06,WSW,245,4.5,5.6,79,0.00,,,0.00,WUHU216HW,2013-11-26 11:05:00,
2013-11-26 05:10:00,31.1,25.4,30.06,WSW,249,3.9,5.6,79,0.00,,,0.00,WUHU216HW,2013-11-26 11:10:00,
2013-11-26 05:15:00,31.1,25.4,30.06,West,259,2.9,5.1,79,0.00,,,0.00,WUHU216HW,2013-11-26 11:15:00,
2013-11-26 05:20:00,31.1,25.4,30.05,WNW,293,2.5,4.9,79,0.00,,,0.00,WUHU216HW,2013-11-26 11:20:00,
2013-11-26 05:25:00,31.0,25.2,30.05,West,259,3.0,4.0,79,0.00,,,0.00,WUHU216HW,2013-11-26 11:25:00,
2013-11-26 05:30:00,31.0,25.2,30.06,WSW,253,4.2,5.1,79,0.00,,,0.00,WUHU216HW,2013-11-26 11:30:00,
2013-11-26 05:35:00,31.0,25.2,30.06,WNW,293,2.0,5.1,79,0.00,,,0.00,WUHU216HW,2013-11-26 11:35:00,
2013-11-26 05:40:00,31.0,25.2,30.05,WSW,257,2.8,4.0,79,0.00,,,0.00,WUHU216HW,2013-11-26 11:40:00,
2013-11-26 05:45:00,31.0,25.2,30.05,WSW,248,2.5,3.8,79,0.00,,,0.00,WUHU216HW,2013-11-26 11:45:00,
2013-11-26 05:50:00,31.0,25.2,30.05,West,270,3.4,3.4,79,0.00,,,0.00,WUHU216HW,2013-11-26 11:50:00,
2013-11-26 05:55:00,31.0,25.2,30.05,West,266,1.8,5.1,79,0.00,,,0.00,WUHU216HW,2013-11-26 11:55:00,
2013-11-26 06:00:00,31.1,25.4,30.04,SW,225,2.7,5.1,79,0.00,,,0.00,WUHU216HW,2013-11-26 12:00:00,
2013-11-26 06:05:00,31.1,25.4,30.06,West,270,2.5,4.3,79,0.00,,,0.00,WUHU216HW,2013-11-26 12:05:00,
2013-11-26 06:11:00,31.3,25.6,30.06,WNW,293,3.4,4.3,79,0.00,,,0.00,WUHU216HW,2013-11-26 12:11:00,
2013-11-26 06:16:00,31.3,25.6,30.05,WNW,286,3.0,6.7,79,0.00,,,0.00,WUHU216HW,2013-11-26 12:16:00,
2013-11-26 06:21:00,31.5,25.7,30.04,West,270,2.7,6.7,79,0.00,,,0.00,WUHU216HW,2013-11-26 12:21:00,
2013-11-26 06:26:00,31.5,25.5,30.04,West,270,2.0,4.7,78,0.00,,,0.00,WUHU216HW,2013-11-26 12:26:00,
2013-11-26 06:31:00,31.5,25.5,30.04,WNW,293,2.0,4.7,78,0.00,,,0.00,WUHU216HW,2013-11-26 12:31:00,
2013-11-26 06:36:00,31.5,25.5,30.04,West,270,2.0,4.5,78,0.00,,,0.00,WUHU216HW,2013-11-26 12:36:00,
2013-11-26 06:41:00,31.7,25.7,30.05,West,270,1.8,4.5,78,0.00,,,0.00,WUHU216HW,2013-11-26 12:41:00,
2013-11-26 06:46:00,31.7,25.7,30.05,WNW,293,3.4,4.3,78,0.00,,,0.00,WUHU216HW,2013-11-26 12:46:00,
2013-11-26 06:51:00,31.7,25.7,30.05,WNW,293,3.8,5.4,78,0.00,,,0.00,WUHU216HW,2013-11-26 12:51:00,
2013-11-26 06:56:00,31.9,25.8,30.05,West,270,2.6,5.6,78,0.00,,,0.00,WUHU216HW,2013-11-26 12:56:00,
2013-11-26 07:01:00,31.9,25.8,30.04,SW,225,4.0,5.6,78,0.00,,,0.00,WUHU216HW,2013-11-26 13:01:00,
2013-11-26 07:06:00,32.0,25.7,30.04,NW,315,4.0,5.4,77,0.00,,,0.00,WUHU216HW,2013-11-26 13:06:00,
2013-11-26 07:11:00,32.0,25.7,30.04,WNW,285,1.4,5.4,77,0.00,,,0.00,WUHU216HW,2013-11-26 13:11:00,
2013-11-26 07:16:00,32.0,25.7,30.04,WNW,290,1.9,4.3,77,0.00,,,0.00,WUHU216HW,2013-11-26 13:16:00,
2013-11-26 07:21:00,32.0,25.7,30.05,SW,225,1.1,4.0,77,0.00,,,0.00,WUHU216HW,2013-11-26 13:21:00,
2013-11-26 07:26:00,32.0,25.7,30.06,West,270,1.3,4.3,77,0.00,,,0.00,WUHU216HW,2013-11-26 13:26:00,
2013-11-26 07:31:00,32.2,25.8,30.05,West,262,1.7,4.3,77,0.00,,,0.00,WUHU216HW,2013-11-26 13:31:00,
2013-11-26 07:36:00,32.2,25.5,30.05,West,261,1.2,3.6,76,0.00,,,0.00,WUHU216HW,2013-11-26 13:36:00,
2013-11-26 07:41:00,32.2,25.8,30.06,SW,225,1.8,2.5,77,0.00,,,0.00,WUHU216HW,2013-11-26 13:41:00,
2013-11-26 07:46:00,32.4,26.0,30.07,WSW,248,2.5,2.9,77,0.00,,,0.00,WUHU216HW,2013-11-26 13:46:00,
2013-11-26 07:51:00,32.4,26.0,30.06,WSW,256,1.3,3.4,77,0.00,,,0.00,WUHU216HW,2013-11-26 13:51:00,
2013-11-26 07:56:00,32.4,26.0,30.06,SW,234,1.4,3.4,77,0.00,,,0.00,WUHU216HW,2013-11-26 13:56:00,
2013-11-26 08:01:00,32.4,26.0,30.06,WSW,254,1.5,2.5,77,0.00,,,0.00,WUHU216HW,2013-11-26 14:01:00,
2013-11-26 08:06:00,32.4,26.0,30.04,West,270,1.6,2.5,77,0.00,,,0.00,WUHU216HW,2013-11-26 14:06:00,
2013-11-26 08:11:00,32.4,26.0,30.05,West,273,2.2,2.7,77,0.00,,,0.00,WUHU216HW,2013-11-26 14:11:00,
2013-11-26 08:16:00,32.6,26.2,30.04,West,270,1.6,2.7,77,0.00,,,0.00,WUHU216HW,2013-11-26 14:16:00,
2013-11-26 08:21:00,32.6,26.2,30.03,West,270,0.8,2.5,77,0.00,,,0.00,WUHU216HW,2013-11-26 14:21:00,
2013-11-26 08:26:00,32.6,26.2,30.04,WNW,284,1.0,2.2,77,0.00,,,0.00,WUHU216HW,2013-11-26 14:26:00,
2013-11-26 08:31:00,32.6,25.8,30.03,WSW,248,0.4,2.2,76,0.00,,,0.00,WUHU216HW,2013-11-26 14:31:00,
2013-11-26 08:36:00,32.8,26.0,30.04,West,270,1.8,2.2,76,0.00,,,0.00,WUHU216HW,2013-11-26 14:36:00,
2013-11-26 08:41:00,32.6,25.8,30.04,WSW,248,0.9,2.2,76,0.00,,,0.00,WUHU216HW,2013-11-26 14:41:00,
2013-11-26 08:46:00,32.6,25.8,30.04,WNW,283,0.5,2.9,76,0.00,,,0.00,WUHU216HW,2013-11-26 14:46:00,
2013-11-26 08:51:00,32.6,25.8,30.04,WNW,293,0.3,2.9,76,0.00,,,0.00,WUHU216HW,2013-11-26 14:51:00,
2013-11-26 08:56:00,32.6,25.8,30.04,WSW,246,0.8,2.5,76,0.00,,,0.00,WUHU216HW,2013-11-26 14:56:00,
2013-11-26 09:01:00,32.8,26.0,30.03,WNW,293,0.9,2.5,76,0.00,,,0.00,WUHU216HW,2013-11-26 15:01:00,
2013-11-26 09:06:00,32.9,26.2,30.04,WSW,248,1.1,2.0,76,0.00,,,0.00,WUHU216HW,2013-11-26 15:06:00,
2013-11-26 09:11:00,33.1,26.3,30.04,SW,225,1.8,2.2,76,0.00,,,0.00,WUHU216HW,2013-11-26 15:11:00,
2013-11-26 09:16:00,33.5,26.6,30.04,South,188,1.2,2.2,76,0.00,,,0.00,WUHU216HW,2013-11-26 15:16:00,
2013-11-26 09:21:00,33.8,27.0,30.04,SSE,158,2.9,2.9,76,0.00,,,0.00,WUHU216HW,2013-11-26 15:21:00,
2013-11-26 09:26:00,34.4,27.6,30.04,South,180,3.6,4.0,76,0.00,,,0.00,WUHU216HW,2013-11-26 15:26:00,
2013-11-26 09:31:00,35.3,28.5,30.04,SW,225,2.7,4.0,76,0.00,,,0.00,WUHU216HW,2013-11-26 15:31:00,
2013-11-26 09:36:00,35.8,29.0,30.04,SW,217,1.7,3.8,76,0.00,,,0.00,WUHU216HW,2013-11-26 15:36:00,
2013-11-26 09:41:00,36.4,29.5,30.04,SSW,203,1.3,4.0,76,0.00,,,0.00,WUHU216HW,2013-11-26 15:41:00,
2013-11-26 09:46:00,37.1,30.3,30.04,SSE,158,2.5,4.0,76,0.00,,,0.00,WUHU216HW,2013-11-26 15:46:00,
2013-11-26 09:51:00,37.6,30.8,30.04,WSW,248,2.2,3.4,76,0.00,,,0.00,WUHU216HW,2013-11-26 15:51:00,
2013-11-26 09:56:00,38.0,30.8,30.05,SSW,210,1.9,3.6,75,0.00,,,0.00,WUHU216HW,2013-11-26 15:56:00,
2013-11-26 10:01:00,38.3,31.1,30.05,SSE,158,2.0,3.6,75,0.00,,,0.00,WUHU216HW,2013-11-26 16:01:00,
2013-11-26 10:06:00,38.7,31.2,30.05,SSE,154,3.0,4.0,74,0.00,,,0.00,WUHU216HW,2013-11-26 16:06:00,
2013-11-26 10:11:00,39.2,31.6,30.05,SSW,203,2.2,4.0,74,0.00,,,0.00,WUHU216HW,2013-11-26 16:11:00,
2013-11-26 10:16:00,39.4,31.8,30.05,West,270,1.8,4.0,74,0.00,,,0.00,WUHU216HW,2013-11-26 16:16:00,
2013-11-26 10:21:00,39.8,31.8,30.05,WSW,239,2.6,4.0,73,0.00,,,0.00,WUHU216HW,2013-11-26 16:21:00,
2013-11-26 10:26:00,39.8,31.8,30.05,SW,218,1.5,3.8,73,0.00,,,0.00,WUHU216HW,2013-11-26 16:26:00,
2013-11-26 10:31:00,40.0,31.6,30.04,WSW,248,2.5,3.8,72,0.00,,,0.00,WUHU216HW,2013-11-26 16:31:00,
2013-11-26 10:36:00,40.3,32.0,30.04,SW,235,3.9,4.9,72,0.00,,,0.00,WUHU216HW,2013-11-26 16:36:00,
2013-11-26 10:41:00,40.7,32.1,30.02,WSW,241,3.4,4.9,71,0.00,,,0.00,WUHU216HW,2013-11-26 16:41:00,
2013-11-26 10:46:00,40.7,32.1,30.02,West,269,2.5,4.7,71,0.00,,,0.00,WUHU216HW,2013-11-26 16:46:00,
2013-11-26 10:51:00,40.7,32.1,30.01,West,278,2.3,4.7,71,0.00,,,0.00,WUHU216HW,2013-11-26 16:51:00,
2013-11-26 10:56:00,40.5,31.9,30.01,WNW,299,1.2,4.3,71,0.00,,,0.00,WUHU216HW,2013-11-26 16:56:00,
2013-11-26 11:01:00,40.7,32.1,30.01,SW,225,3.6,4.3,71,0.00,,,0.00,WUHU216HW,2013-11-26 17:01:00,
2013-11-26 11:06:00,41.0,32.4,30.01,SSW,203,5.1,5.1,71,0.00,,,0.00,WUHU216HW,2013-11-26 17:06:00,
2013-11-26 11:11:00,41.4,32.4,30.01,West,270,3.9,5.6,70,0.00,,,0.00,WUHU216HW,2013-11-26 17:11:00,
2013-11-26 11:16:00,41.0,32.0,30.01,WNW,283,2.9,5.6,70,0.00,,,0.00,WUHU216HW,2013-11-26 17:16:00,
2013-11-26 11:21:00,40.9,31.5,30.01,West,279,2.7,4.9,69,0.00,,,0.00,WUHU216HW,2013-11-26 17:21:00,
2013-11-26 11:26:00,40.9,31.5,30.01,West,262,4.4,5.4,69,0.00,,,0.00,WUHU216HW,2013-11-26 17:26:00,
2013-11-26 11:31:00,41.0,31.7,30.01,NW,315,4.7,6.3,69,0.00,,,0.00,WUHU216HW,2013-11-26 17:31:00,
2013-11-26 11:36:00,41.0,30.9,30.01,NW,315,4.5,6.3,67,0.00,,,0.00,WUHU216HW,2013-11-26 17:36:00,
2013-11-26 11:41:00,40.9,31.2,30.01,WNW,285,2.6,6.3,68,0.00,,,0.00,WUHU216HW,2013-11-26 17:41:00,
2013-11-26 11:46:00,40.9,31.2,30.02,NW,320,2.9,6.3,68,0.00,,,0.00,WUHU216HW,2013-11-26 17:46:00,
2013-11-26 11:51:00,41.0,31.3,30.01,NW,315,3.4,6.3,68,0.00,,,0.00,WUHU216HW,2013-11-26 17:51:00,
2013-11-26 11:56:00,41.0,31.3,30.01,WNW,302,1.5,5.6,68,0.00,,,0.00,WUHU216HW,2013-11-26 17:56:00,
2013-11-26 12:01:00,41.0,31.3,30.00,West,269,2.7,4.0,68,0.00,,,0.00,WUHU216HW,2013-11-26 18:01:00,
2013-11-26 12:06:00,41.0,30.9,30.00,NNW,338,6.0,6.7,67,0.00,,,0.00,WUHU216HW,2013-11-26 18:06:00,
2013-11-26 12:11:00,40.7,30.5,29.99,WNW,293,4.4,7.6,67,0.00,,,0.00,WUHU216HW,2013-11-26 18:11:00,
2013-11-26 12:16:00,40.1,30.0,30.00,WNW,298,6.3,9.8,67,0.00,,,0.00,WUHU216HW,2013-11-26 18:16:00,
2013-11-26 12:21:00,40.0,30.3,29.99,WNW,293,4.0,9.8,68,0.00,,,0.00,WUHU216HW,2013-11-26 18:21:00,
2013-11-26 12:26:00,40.0,30.6,29.99,WNW,298,4.8,9.8,69,0.00,,,0.00,WUHU216HW,2013-11-26 18:26:00,
2013-11-26 12:31:00,39.6,30.3,29.99,WNW,296,6.1,9.8,69,0.00,,,0.00,WUHU216HW,2013-11-26 18:31:00,
2013-11-26 12:36:00,39.1,29.7,29.99,NW,314,5.1,8.9,69,0.00,,,0.00,WUHU216HW,2013-11-26 18:36:00,
2013-11-26 12:41:00,38.7,29.8,29.99,WNW,293,7.2,9.2,70,0.00,,,0.00,WUHU216HW,2013-11-26 18:41:00,
2013-11-26 12:46:00,38.3,29.4,29.99,WNW,283,5.3,9.2,70,0.00,,,0.00,WUHU216HW,2013-11-26 18:46:00,
2013-11-26 12:51:00,38.2,29.6,29.99,WNW,290,7.4,8.7,71,0.00,,,0.00,WUHU216HW,2013-11-26 18:51:00,
2013-11-26 12:56:00,38.0,29.4,29.99,WNW,293,5.6,8.7,71,0.00,,,0.00,WUHU216HW,2013-11-26 18:56:00,
2013-11-26 13:01:00,38.0,29.4,29.99,NW,315,6.9,8.5,71,0.00,,,0.00,WUHU216HW,2013-11-26 19:01:00,
2013-11-26 13:06:00,37.8,29.3,29.99,West,276,5.1,8.3,71,0.00,,,0.00,WUHU216HW,2013-11-26 19:06:00,
2013-11-26 13:11:00,37.8,29.3,29.99,WNW,294,4.1,8.3,71,0.00,,,0.00,WUHU216HW,2013-11-26 19:11:00,
2013-11-26 13:16:00,37.8,29.3,29.98,NW,326,4.3,6.7,71,0.00,,,0.00,WUHU216HW,2013-11-26 19:16:00,
2013-11-26 13:21:00,37.8,29.6,29.98,WNW,290,6.3,8.3,72,0.00,,,0.00,WUHU216HW,2013-11-26 19:21:00,
2013-11-26 13:26:00,37.8,29.6,29.98,WNW,298,4.0,8.3,72,0.00,,,0.00,WUHU216HW,2013-11-26 19:26:00,
2013-11-26 13:31:00,37.8,29.6,29.98,NNW,328,3.2,7.8,72,0.00,,,0.00,WUHU216HW,2013-11-26 19:31:00,
2013-11-26 13:36:00,37.8,29.6,29.98,NW,320,4.0,7.4,72,0.00,,,0.00,WUHU216HW,2013-11-26 19:36:00,
2013-11-26 13:41:00,38.0,29.8,29.98,West,274,5.4,8.5,72,0.00,,,0.00,WUHU216HW,2013-11-26 19:41:00,
2013-11-26 13:46:00,38.2,30.2,29.98,NW,315,6.9,8.5,73,0.00,,,0.00,WUHU216HW,2013-11-26 19:46:00,
2013-11-26 13:51:00,38.2,30.0,29.98,NNW,338,4.7,7.4,72,0.00,,,0.00,WUHU216HW,2013-11-26 19:51:00,
2013-11-26 13:56:00,38.2,29.6,29.97,WNW,293,7.6,7.6,71,0.00,,,0.00,WUHU216HW,2013-11-26 19:56:00,
2013-11-26 14:01:00,38.0,28.7,29.97,NW,320,6.9,8.7,69,0.00,,,0.00,WUHU216HW,2013-11-26 20:01:00,
2013-11-26 14:06:00,37.8,29.0,29.97,NW,315,4.5,8.7,70,0.00,,,0.00,WUHU216HW,2013-11-26 20:06:00,
2013-11-26 14:11:00,37.8,29.0,29.97,NW,308,6.3,10.3,70,0.00,,,0.00,WUHU216HW,2013-11-26 20:11:00,
2013-11-26 14:16:00,37.8,29.0,29.97,WNW,293,6.7,10.3,70,0.00,,,0.00,WUHU216HW,2013-11-26 20:16:00,
2013-11-26 14:21:00,37.8,29.0,29.97,NW,315,6.2,9.4,70,0.00,,,0.00,WUHU216HW,2013-11-26 20:21:00,
2013-11-26 14:26:00,37.8,29.0,29.97,NW,315,7.8,9.4,70,0.00,,,0.00,WUHU216HW,2013-11-26 20:26:00,
2013-11-26 14:31:00,37.8,28.5,29.97,NW,315,6.9,9.2,69,0.00,,,0.00,WUHU216HW,2013-11-26 20:31:00,
2013-11-26 14:36:00,37.8,29.0,29.98,WNW,295,7.2,9.2,70,0.00,,,0.00,WUHU216HW,2013-11-26 20:36:00,
2013-11-26 14:41:00,37.8,28.5,29.98,NW,305,6.2,9.6,69,0.00,,,0.00,WUHU216HW,2013-11-26 20:41:00,
2013-11-26 14:46:00,37.8,27.8,29.98,NNW,333,6.3,9.6,67,0.00,,,0.00,WUHU216HW,2013-11-26 20:46:00,
2013-11-26 14:51:00,37.6,28.0,29.98,NNW,338,6.5,9.2,68,0.00,,,0.00,WUHU216HW,2013-11-26 20:51:00,
2013-11-26 14:56:00,37.4,27.5,29.98,NNW,327,5.6,9.2,67,0.00,,,0.00,WUHU216HW,2013-11-26 20:56:00,
2013-11-26 15:01:00,37.4,27.9,29.98,WNW,293,8.5,8.5,68,0.00,,,0.00,WUHU216HW,2013-11-26 21:01:00,
2013-11-26 15:06:00,37.3,28.1,29.98,WSW,248,6.7,8.5,69,0.00,,,0.00,WUHU216HW,2013-11-26 21:06:00,
2013-11-26 15:11:00,37.1,27.9,29.98,NW,315,5.6,8.5,69,0.00,,,0.00,WUHU216HW,2013-11-26 21:11:00,
2013-11-26 15:16:00,37.1,27.6,29.98,NW,315,7.8,8.3,68,0.00,,,0.00,WUHU216HW,2013-11-26 21:16:00,
2013-11-26 15:21:00,36.9,27.7,29.98,WNW,294,6.5,9.2,69,0.00,,,0.00,WUHU216HW,2013-11-26 21:21:00,
2013-11-26 15:26:00,36.7,27.6,29.98,NW,324,7.0,9.6,69,0.00,,,0.00,WUHU216HW,2013-11-26 21:26:00,
2013-11-26 15:31:00,36.4,27.5,29.98,NNW,338,7.2,9.6,70,0.00,,,0.00,WUHU216HW,2013-11-26 21:31:00,
2013-11-26 15:36:00,36.4,27.5,29.98,WNW,293,8.5,8.7,70,0.00,,,0.00,WUHU216HW,2013-11-26 21:36:00,
2013-11-26 15:41:00,36.0,27.6,29.98,WNW,293,8.7,8.7,71,0.00,,,0.00,WUHU216HW,2013-11-26 21:41:00,
2013-11-26 15:46:00,35.8,27.4,29.98,NW,304,5.7,8.7,71,0.00,,,0.00,WUHU216HW,2013-11-26 21:46:00,
2013-11-26 15:51:00,35.6,27.2,29.98,NW,315,9.6,9.6,71,0.00,,,0.00,WUHU216HW,2013-11-26 21:51:00,
2013-11-26 15:56:00,35.6,27.5,29.98,NNW,338,6.3,9.6,72,0.00,,,0.00,WUHU216HW,2013-11-26 21:56:00,
2013-11-26 16:01:00,35.5,27.6,29.99,NW,315,4.7,9.6,73,0.00,,,0.00,WUHU216HW,2013-11-26 22:01:00,
2013-11-26 16:06:00,35.3,27.5,29.99,NNW,338,6.9,8.5,73,0.00,,,0.00,WUHU216HW,2013-11-26 22:06:00,
2013-11-26 16:11:00,35.1,27.3,29.99,NW,316,6.7,12.1,73,0.00,,,0.00,WUHU216HW,2013-11-26 22:11:00,
2013-11-26 16:16:00,34.9,27.1,29.99,NW,308,4.5,12.1,73,0.00,,,0.00,WUHU216HW,2013-11-26 22:16:00,
2013-11-26 16:21:00,34.7,26.9,29.99,NW,315,7.2,10.5,73,0.00,,,0.00,WUHU216HW,2013-11-26 22:21:00,
2013-11-26 16:26:00,34.7,26.9,30.00,NNW,338,5.6,8.1,73,0.00,,,0.00,WUHU216HW,2013-11-26 22:26:00,
2013-11-26 16:31:00,34.6,27.0,30.00,NW,317,7.5,10.1,74,0.00,,,0.00,WUHU216HW,2013-11-26 22:31:00,
2013-11-26 16:36:00,34.4,26.8,30.00,NW,315,9.8,10.5,74,0.00,,,0.00,WUHU216HW,2013-11-26 22:36:00,
2013-11-26 16:41:00,34.4,26.8,30.01,NW,319,7.9,10.5,74,0.00,,,0.00,WUHU216HW,2013-11-26 22:41:00,
2013-11-26 16:46:00,34.2,26.6,30.01,NW,315,6.7,9.8,74,0.00,,,0.00,WUHU216HW,2013-11-26 22:46:00,
2013-11-26 16:51:00,34.0,26.8,30.01,NW,311,4.9,8.5,75,0.00,,,0.00,WUHU216HW,2013-11-26 22:51:00,
2013-11-26 16:56:00,33.8,27.0,30.01,NW,315,7.6,8.1,76,0.00,,,0.00,WUHU216HW,2013-11-26 22:56:00,
2013-11-26 17:01:00,33.8,26.6,30.01,WSW,248,6.9,9.4,75,0.00,,,0.00,WUHU216HW,2013-11-26 23:01:00,
2013-11-26 17:06:00,33.7,26.5,30.01,NNW,338,10.1,10.1,75,0.00,,,0.00,WUHU216HW,2013-11-26 23:06:00,
2013-11-26 17:11:00,33.7,26.5,30.02,NW,315,6.0,10.1,75,0.00,,,0.00,WUHU216HW,2013-11-26 23:11:00,
2013-11-26 17:16:00,33.5,26.3,30.02,NW,317,8.1,11.0,75,0.00,,,0.00,WUHU216HW,2013-11-26 23:16:00,
2013-11-26 17:21:00,33.5,26.6,30.02,NW,322,6.9,11.0,76,0.00,,,0.00,WUHU216HW,2013-11-26 23:21:00,
2013-11-26 17:26:00,33.3,26.8,30.02,NW,325,7.8,12.8,77,0.00,,,0.00,WUHU216HW,2013-11-26 23:26:00,
2013-11-26 17:31:00,33.1,27.0,30.02,NW,307,5.8,12.8,78,0.00,,,0.00,WUHU216HW,2013-11-26 23:31:00,
2013-11-26 17:36:00,32.9,26.8,30.02,NW,313,6.1,9.8,78,0.00,,,0.00,WUHU216HW,2013-11-26 23:36:00,
2013-11-26 17:41:00,32.9,26.8,30.02,NW,315,5.6,9.8,78,0.00,,,0.00,WUHU216HW,2013-11-26 23:41:00,
2013-11-26 17:46:00,32.9,26.8,30.03,North,0,5.8,8.3,78,0.00,,,0.00,WUHU216HW,2013-11-26 23:46:00,
2013-11-26 17:51:00,32.9,26.8,30.02,NNE,23,4.7,7.6,78,0.00,,,0.00,WUHU216HW,2013-11-26 23:51:00,
2013-11-26 17:56:00,32.8,26.6,30.02,NNW,338,6.0,7.6,78,0.00,,,0.00,WUHU216HW,2013-11-26 23:56:00,
2013-11-26 18:01:00,32.8,26.3,30.03,WNW,293,6.5,10.5,77,0.00,,,0.00,WUHU216HW,2013-11-27 00:01:00,
2013-11-26 18:06:00,32.8,26.3,30.03,NNW,338,8.7,10.5,77,0.00,,,0.00,WUHU216HW,2013-11-27 00:06:00,
2013-11-26 18:11:00,32.8,26.3,30.03,NW,324,5.0,10.5,77,0.00,,,0.00,WUHU216HW,2013-11-27 00:11:00,
2013-11-26 18:16:00,32.8,26.0,30.03,NW,324,6.4,10.5,76,0.00,,,0.00,WUHU216HW,2013-11-27 00:16:00,
2013-11-26 18:21:00,32.8,26.0,30.03,West,270,5.1,8.7,76,0.00,,,0.00,WUHU216HW,2013-11-27 00:21:00,
2013-11-26 18:26:00,32.8,26.3,30.03,NW,319,5.5,8.7,77,0.00,,,0.00,WUHU216HW,2013-11-27 00:26:00,
2013-11-26 18:31:00,32.8,26.0,30.04,NNW,338,8.7,11.0,76,0.00,,,0.00,WUHU216HW,2013-11-27 00:31:00,
2013-11-26 18:36:00,32.8,26.0,30.04,NNW,338,10.5,12.5,76,0.00,,,0.00,WUHU216HW,2013-11-27 00:36:00,
2013-11-26 18:41:00,32.6,25.5,30.04,NNE,23,8.9,12.5,75,0.00,,,0.00,WUHU216HW,2013-11-27 00:41:00,
2013-11-26 18:46:00,32.4,25.4,30.04,NNW,338,8.1,10.5,75,0.00,,,0.00,WUHU216HW,2013-11-27 00:46:00,
2013-11-26 18:51:00,32.4,25.7,30.04,NNW,328,5.0,10.1,76,0.00,,,0.00,WUHU216HW,2013-11-27 00:51:00,
2013-11-26 18:56:00,32.4,25.7,30.04,NNW,338,8.5,9.2,76,0.00,,,0.00,WUHU216HW,2013-11-27 00:56:00,
2013-11-26 19:01:00,32.4,25.7,30.04,NW,323,7.5,10.5,76,0.00,,,0.00,WUHU216HW,2013-11-27 01:01:00,
2013-11-26 19:06:00,32.2,25.2,30.04,NNW,338,10.3,11.0,75,0.00,,,0.00,WUHU216HW,2013-11-27 01:06:00,
2013-11-26 19:11:00,32.0,25.0,30.05,North,0,10.7,11.4,75,0.00,,,0.00,WUHU216HW,2013-11-27 01:11:00,
2013-11-26 19:16:00,32.0,24.7,30.05,NNW,337,5.9,11.4,74,0.00,,,0.00,WUHU216HW,2013-11-27 01:16:00,
2013-11-26 19:21:00,32.0,24.7,30.05,North,0,4.7,11.0,74,0.00,,,0.00,WUHU216HW,2013-11-27 01:21:00,
2013-11-26 19:26:00,31.9,24.5,30.05,NW,315,7.7,11.4,74,0.00,,,0.00,WUHU216HW,2013-11-27 01:26:00,
2013-11-26 19:31:00,31.7,24.0,30.05,NNW,338,9.2,14.1,73,0.00,,,0.00,WUHU216HW,2013-11-27 01:31:00,
2013-11-26 19:36:00,31.5,23.5,30.05,North,0,7.4,14.1,72,0.00,,,0.00,WUHU216HW,2013-11-27 01:36:00,
2013-11-26 19:41:00,31.3,23.3,30.06,NW,325,11.1,13.6,72,0.00,,,0.00,WUHU216HW,2013-11-27 01:41:00,
2013-11-26 19:46:00,31.1,23.1,30.06,WNW,293,6.9,12.5,72,0.00,,,0.00,WUHU216HW,2013-11-27 01:46:00,
2013-11-26 19:51:00,31.0,22.3,30.06,NW,318,8.9,11.0,70,0.00,,,0.00,WUHU216HW,2013-11-27 01:51:00,
2013-11-26 19:56:00,30.8,22.1,30.06,NNW,338,11.9,11.9,70,0.00,,,0.00,WUHU216HW,2013-11-27 01:56:00,
2013-11-26 20:01:00,30.6,22.0,30.06,NW,319,7.7,11.9,70,0.00,,,0.00,WUHU216HW,2013-11-27 02:01:00,
2013-11-26 20:06:00,30.4,22.2,30.06,WNW,293,9.4,11.9,71,0.00,,,0.00,WUHU216HW,2013-11-27 02:06:00,
2013-11-26 20:11:00,30.2,21.6,30.07,WNW,298,10.1,12.3,70,0.00,,,0.00,WUHU216HW,2013-11-27 02:11:00,
2013-11-26 20:16:00,29.9,21.2,30.07,WNW,285,9.8,12.8,70,0.00,,,0.00,WUHU216HW,2013-11-27 02:16:00,
2013-11-26 20:21:00,29.7,21.2,30.07,NW,315,8.7,12.8,70,0.00,,,0.00,WUHU216HW,2013-11-27 02:21:00,
2013-11-26 20:26:00,29.3,20.8,30.07,NW,316,7.6,12.8,70,0.00,,,0.00,WUHU216HW,2013-11-27 02:26:00,
2013-11-26 20:31:00,29.3,20.8,30.07,NNW,338,9.6,12.8,70,0.00,,,0.00,WUHU216HW,2013-11-27 02:31:00,
2013-11-26 20:36:00,29.2,20.6,30.07,WNW,299,9.9,13.0,70,0.00,,,0.00,WUHU216HW,2013-11-27 02:36:00,
2013-11-26 20:41:00,29.0,20.4,30.07,NW,309,7.2,13.0,70,0.00,,,0.00,WUHU216HW,2013-11-27 02:41:00,
2013-11-26 20:46:00,29.0,20.4,30.07,NW,304,6.5,10.5,70,0.00,,,0.00,WUHU216HW,2013-11-27 02:46:00,
2013-11-26 20:51:00,28.8,20.4,30.07,NW,315,7.6,13.6,70,0.00,,,0.00,WUHU216HW,2013-11-27 02:51:00,
2013-11-26 20:56:00,28.8,20.4,30.07,NNW,338,10.5,13.6,70,0.00,,,0.00,WUHU216HW,2013-11-27 02:56:00,
2013-11-26 21:01:00,28.6,19.8,30.07,NW,315,7.6,11.0,69,0.00,,,0.00,WUHU216HW,2013-11-27 03:01:00,
2013-11-26 21:06:00,28.4,19.3,30.07,NNW,330,7.9,11.0,68,0.00,,,0.00,WUHU216HW,2013-11-27 03:06:00,
2013-11-26 21:11:00,28.4,19.3,30.07,WNW,300,8.4,13.4,68,0.00,,,0.00,WUHU216HW,2013-11-27 03:11:00,
2013-11-26 21:16:00,28.3,19.4,30.07,WNW,293,11.9,13.4,69,0.00,,,0.00,WUHU216HW,2013-11-27 03:16:00,
2013-11-26 21:21:00,28.3,19.4,30.07,NW,315,9.6,13.2,69,0.00,,,0.00,WUHU216HW,2013-11-27 03:21:00,
2013-11-26 21:26:00,28.1,19.3,30.07,NW,315,14.3,14.3,69,0.00,,,0.00,WUHU216HW,2013-11-27 03:26:00,
2013-11-26 21:31:00,27.9,18.4,30.07,NW,311,8.8,14.3,67,0.00,,,0.00,WUHU216HW,2013-11-27 03:31:00,
2013-11-26 21:36:00,27.7,18.2,30.07,NNW,338,7.2,14.3,67,0.00,,,0.00,WUHU216HW,2013-11-27 03:36:00,
2013-11-26 21:41:00,27.5,18.4,30.07,WNW,293,5.4,10.5,68,0.00,,,0.00,WUHU216HW,2013-11-27 03:41:00,
2013-11-26 21:46:00,27.4,17.5,30.07,NW,306,7.6,11.4,66,0.00,,,0.00,WUHU216HW,2013-11-27 03:46:00,
2013-11-26 21:51:00,27.0,17.5,30.07,WNW,293,13.2,13.2,67,0.00,,,0.00,WUHU216HW,2013-11-27 03:51:00,
2013-11-26 21:55:00,26.8,17.3,30.07,NNW,333,8.3,13.2,67,0.00,,,0.00,WUHU216HW,2013-11-27 03:55:00,
2013-11-26 22:00:00,26.5,17.3,30.07,NW,315,11.4,11.9,68,0.00,,,0.00,WUHU216HW,2013-11-27 04:00:00,
2013-11-26 22:05:00,26.3,17.5,30.07,NW,315,6.9,11.4,69,0.00,,,0.00,WUHU216HW,2013-11-27 04:05:00,
2013-11-26 22:10:00,26.1,17.6,30.07,NNW,338,7.6,11.4,70,0.00,,,0.00,WUHU216HW,2013-11-27 04:10:00,
2013-11-26 22:15:00,26.1,17.6,30.07,WNW,293,7.2,9.8,70,0.00,,,0.00,WUHU216HW,2013-11-27 04:15:00,
2013-11-26 22:20:00,26.1,17.9,30.07,NNW,329,6.6,10.5,71,0.00,,,0.00,WUHU216HW,2013-11-27 04:20:00,
2013-11-26 22:25:00,26.1,18.3,30.08,NW,315,8.5,11.0,72,0.00,,,0.00,WUHU216HW,2013-11-27 04:25:00,
2013-11-26 22:30:00,26.3,18.5,30.07,NW,309,6.4,12.1,72,0.00,,,0.00,WUHU216HW,2013-11-27 04:30:00,
2013-11-26 22:35:00,26.3,18.7,30.08,WNW,293,6.5,12.1,73,0.00,,,0.00,WUHU216HW,2013-11-27 04:35:00,
2013-11-26 22:40:00,26.3,19.4,30.08,NW,311,6.2,8.5,75,0.00,,,0.00,WUHU216HW,2013-11-27 04:40:00,
2013-11-26 22:45:00,26.5,19.5,30.08,NNW,340,8.0,10.5,75,0.00,,,0.00,WUHU216HW,2013-11-27 04:45:00,
2013-11-26 22:50:00,26.3,19.1,30.08,NW,315,8.5,10.5,74,0.00,,,0.00,WUHU216HW,2013-11-27 04:50:00,
2013-11-26 22:55:00,26.1,18.3,30.08,NW,321,7.5,10.7,72,0.00,,,0.00,WUHU216HW,2013-11-27 04:55:00,
2013-11-26 23:00:00,26.1,18.3,30.08,NNW,341,7.5,12.1,72,0.00,,,0.00,WUHU216HW,2013-11-27 05:00:00,
2013-11-26 23:01:00,26.1,18.3,30.08,NW,315,8.3,12.1,72,0.00,,,0.00,WUHU216HW,2013-11-27 05:01:00,
2013-11-26 23:06:00,25.9,17.5,30.08,NNW,348,8.0,12.1,70,0.00,,,0.00,WUHU216HW,2013-11-27 05:06:00,
2013-11-26 23:11:00,25.6,15.7,30.08,NW,315,8.4,11.4,66,0.00,,,0.00,WUHU216HW,2013-11-27 05:11:00,
2013-11-26 23:16:00,25.6,15.4,30.08,NNW,330,8.4,10.5,65,0.00,,,0.00,WUHU216HW,2013-11-27 05:16:00,
2013-11-26 23:21:00,25.2,15.4,30.08,NW,315,7.8,10.5,66,0.00,,,0.00,WUHU216HW,2013-11-27 05:21:00,
2013-11-26 23:26:00,24.8,15.0,30.08,WNW,293,7.6,11.4,66,0.00,,,0.00,WUHU216HW,2013-11-27 05:26:00,
2013-11-26 23:31:00,24.7,14.9,30.08,NNW,336,7.0,11.4,66,0.00,,,0.00,WUHU216HW,2013-11-27 05:31:00,
2013-11-26 23:36:00,24.3,14.9,30.09,NW,315,6.5,8.5,67,0.00,,,0.00,WUHU216HW,2013-11-27 05:36:00,
2013-11-26 23:41:00,23.9,14.5,30.08,NNW,338,5.8,9.2,67,0.00,,,0.00,WUHU216HW,2013-11-27 05:41:00,
2013-11-26 23:46:00,23.8,14.7,30.09,WNW,293,5.6,9.2,68,0.00,,,0.00,WUHU216HW,2013-11-27 05:46:00,
2013-11-26 23:51:00,23.4,14.4,30.08,NNW,343,4.9,8.3,68,0.00,,,0.00,WUHU216HW,2013-11-27 05:51:00,
2013-11-26 23:56:00,23.2,13.5,30.08,NNW,343,7.6,10.7,66,0.00,,,0.00,WUHU216HW,2013-11-27 05:56:00,